sat.trackr.live / text

‹ back to catalog

STARLINK-36732

NORAD 67813 · 2026-032S

PAYLOAD ACTIVE UNKNOWN

§ Identity

Operator
Country
US
Launch date
2026-02-15
Launch site
AFWTR
Launch vehicle
Mass (kg)
RCS (m²)

Purposes: comms

External: N2YO · Heavens-Above · Gunter

§ Orbital elements

Epoch: 2026-05-25T02:23:14.063712Z

Period
93.91 min
Inclination
97.2849°
Eccentricity
0.0001397
Mean motion
15.33453748 rev/d
Perigee alt
464.6 km
Apogee alt
466.5 km
Semi-major
6,843.7 km
B*
5.5291e-4
RAAN
333.2373°
Arg perigee
91.8727°
Mean anomaly
268.2676°
Rev number
1,667

§ Raw data

STARLINK-367321 67813U 26032S   26145.09946833  .00017822  00000+0  55291-3 0  99922 67813  97.2849 333.2373 0001397  91.8727 268.2676 15.33453748 16674

JSON: /api/v1/satellites/67813 · /tle

For live sub-satellite position, see the globe view (requires WebGL).

§ Visibility from observer

Set your observer location to see the next 7 days of passes ≥ 10°. The values pass through the URL so the page stays shareable.

No JS? Fill the form by hand. The geolocation button needs JavaScript.